sat.trackr.live / text

‹ back to catalog

STARLINK-35294

NORAD 65755 · 2025-216X

PAYLOAD ACTIVE UNKNOWN

§ Identity

Operator
Country
US
Launch date
2025-09-25
Launch site
AFETR
Launch vehicle
Mass (kg)
RCS (m²)

Purposes: comms

External: N2YO · Heavens-Above · Gunter

§ Orbital elements

Epoch: 2026-09-20T23:17:32.523648Z

Period
93.85 min
Inclination
53.1570°
Eccentricity
0.0001338
Mean motion
15.34395380 rev/d
Perigee alt
461.8 km
Apogee alt
463.6 km
Semi-major
6,840.9 km
B*
4.9317e-4
RAAN
143.5818°
Arg perigee
88.8322°
Mean anomaly
271.2834°
Rev number
5,647

§ Raw data

STARLINK-352941 65755U 25216X   26263.97051532  .00016320  00000+0  49317-3 0  99932 65755  53.1570 143.5818 0001338  88.8322 271.2834 15.34395380 56477

JSON: /api/v1/satellites/65755 · /tle

For live sub-satellite position, see the globe view (requires WebGL).

§ Visibility from observer

Set your observer location to see the next 7 days of passes ≥ 10°. The values pass through the URL so the page stays shareable.

No JS? Fill the form by hand. The geolocation button needs JavaScript.